TimeHST,TemperatureF,Dew PointF,Humidity,Sea Level PressureIn,VisibilityMPH,Wind Direction,Wind SpeedMPH,Gust SpeedMPH,PrecipitationIn,Events,Conditions,WindDirDegrees,DateUTC
12:53 AM,73.0,59.0,61,30.06,10.0,ESE,9.2,-,N/A,,Clear,120,2013-01-06 10:53:00
1:53 AM,71.1,57.0,61,30.06,10.0,ENE,5.8,-,N/A,,Clear,70,2013-01-06 11:53:00
2:53 AM,71.1,57.9,63,30.04,10.0,ESE,8.1,-,N/A,,Clear,120,2013-01-06 12:53:00
3:53 AM,72.0,59.0,64,30.04,10.0,SE,6.9,-,N/A,,Clear,130,2013-01-06 13:53:00
4:53 AM,72.0,59.0,64,30.04,10.0,SE,4.6,-,N/A,,Clear,130,2013-01-06 14:53:00
5:53 AM,71.1,57.9,63,30.05,10.0,ESE,4.6,-,N/A,,Clear,120,2013-01-06 15:53:00
6:53 AM,68.0,57.0,68,30.06,10.0,NE,5.8,-,N/A,,Clear,50,2013-01-06 16:53:00
7:53 AM,71.1,57.0,61,30.08,10.0,East,3.5,-,N/A,,Clear,100,2013-01-06 17:53:00
8:53 AM,77.0,61.0,58,30.09,10.0,South,8.1,-,N/A,,Clear,170,2013-01-06 18:53:00
9:53 AM,79.0,64.0,60,30.10,10.0,South,11.5,-,N/A,,Clear,170,2013-01-06 19:53:00
10:53 AM,80.1,63.0,56,30.08,10.0,South,8.1,-,N/A,,Clear,190,2013-01-06 20:53:00
11:53 AM,79.0,64.0,60,30.06,10.0,SW,8.1,-,N/A,,Partly Cloudy,220,2013-01-06 21:53:00
12:53 PM,78.1,63.0,60,30.03,10.0,SSW,8.1,-,N/A,,Mostly Cloudy,200,2013-01-06 22:53:00
1:53 PM,79.0,62.1,56,29.99,10.0,SSW,9.2,-,N/A,,Overcast,210,2013-01-06 23:53:00
2:53 PM,79.0,63.0,58,29.99,10.0,WSW,5.8,-,N/A,,Scattered Clouds,240,2013-01-07 00:53:00
3:53 PM,79.0,63.0,58,29.98,10.0,SW,8.1,-,N/A,,Mostly Cloudy,230,2013-01-07 01:53:00
4:53 PM,78.1,63.0,60,29.98,10.0,SW,8.1,-,N/A,,Mostly Cloudy,220,2013-01-07 02:53:00
5:53 PM,77.0,63.0,62,29.99,10.0,SW,6.9,-,N/A,,Mostly Cloudy,230,2013-01-07 03:53:00
6:53 PM,75.9,63.0,64,29.99,10.0,SW,3.5,-,N/A,,Mostly Cloudy,230,2013-01-07 04:53:00
7:53 PM,75.9,63.0,64,30.00,10.0,Calm,Calm,-,N/A,,Scattered Clouds,0,2013-01-07 05:53:00
8:53 PM,73.0,62.1,68,30.01,10.0,ESE,4.6,-,N/A,,Clear,120,2013-01-07 06:53:00
9:53 PM,73.0,62.1,68,30.02,10.0,SE,5.8,-,N/A,,Clear,130,2013-01-07 07:53:00
10:53 PM,72.0,59.0,64,30.01,10.0,SE,9.2,-,N/A,,Clear,140,2013-01-07 08:53:00
11:53 PM,72.0,61.0,68,30.01,10.0,SE,8.1,-,N/A,,Clear,140,2013-01-07 09:53:00